Alexandria, MN

9:07 PM CST on January 23, 2018 (GMT -0600)
Chandler

Weather History for KAXN - January, 2014

Change the Weather History Date:

Monday, January 13, 2014

  Actual Average Record
Temperature  
Mean Temperature 24 °F -  
Max Temperature 30 °F 19 °F 47 °F (1987)
Min Temperature 17 °F 1 °F -29 °F (2009)
Degree Days  
Heating Degree Days 42    
Moisture  
Dew Point 17 °F    
Average Humidity 81    
Maximum Humidity 93    
Minimum Humidity 71    
Precipitation  
Precipitation 0.01 in - - ()
Sea Level Pressure  
Sea Level Pressure 29.60 in    
Wind  
Wind Speed 13 mph (NW)    
Max Wind Speed 22 mph    
Max Gust Speed 29 mph    
Visibility 8 miles    
Events Snow    
Averages and records for this station are not official NWS values.
T = Trace of Precipitation, MM = Missing Value Source: NWS Daily Summary

Daily Weather History Graph

Daily Weather History Graph

Search for Another Location

Airport or City:

Trip Planner

Search our weather history database for the weather conditions in past years. The results will help you decide how hot, cold, wet, or windy it might be!

Date:

Astronomy

Jan. 13, 2014 Rise Set
Actual Time 8:00 AM CST 5:00 PM CST
Civil Twilight 7:26 AM CST 5:34 PM CST
Nautical Twilight 6:49 AM CST 6:11 PM CST
Astronomical Twilight 6:13 AM CST 6:47 PM CST
Moon 3:17 PM CST (1/13) 5:48 AM CST (1/13)
Length of Visible Light 10h 07m
Length of Day
9h 00m
Waxing Gibbous, 95% of the Moon is Illuminated
Jan 13
Waxing Gibbous
Jan 15
Full
Jan 23
Last Quarter
Jan 30
New
Feb 6
First Quarter

Hourly Weather History & Observations

Time (CST) Temp. Windchill Dew Point Humidity Pressure Visibility Wind Dir Wind Speed Gust Speed Precip Events Conditions
12:43 AM 30.2 °F 19.3 °F 24.8 °F 80% 29.53 in 10.0 mi NW 15.0 mph - N/A   Mostly Cloudy
12:53 AM 30.0 °F 19.1 °F 25.0 °F 82% 29.58 in 10.0 mi NW 15.0 mph 23.0 mph N/A   Overcast
1:53 AM 28.0 °F 14.9 °F 21.9 °F 78% 29.59 in 10.0 mi NW 19.6 mph - N/A   Overcast
2:11 AM 28.4 °F 16.6 °F 21.2 °F 74% 29.55 in 10.0 mi NW 16.1 mph 27.6 mph N/A   Overcast
2:26 AM 26.6 °F 12.4 °F 21.2 °F 80% 29.56 in 10.0 mi NW 21.9 mph 28.8 mph N/A   Mostly Cloudy
2:53 AM 26.1 °F 13.1 °F 19.0 °F 75% 29.63 in 10.0 mi NW 17.3 mph - N/A   Overcast
3:53 AM 24.1 °F 13.1 °F 18.0 °F 77% 29.65 in 10.0 mi NW 11.5 mph - N/A   Mostly Cloudy
4:34 AM 24.8 °F 15.3 °F 17.6 °F 74% 29.61 in 10.0 mi WNW 9.2 mph - N/A   Mostly Cloudy
4:53 AM 24.1 °F 13.7 °F 19.0 °F 81% 29.67 in 10.0 mi WNW 10.4 mph - N/A   Overcast
5:33 AM 21.2 °F 7.3 °F 15.8 °F 80% 29.61 in 10.0 mi WNW 16.1 mph - N/A   Scattered Clouds
5:53 AM 21.0 °F 7.1 °F 16.0 °F 81% 29.67 in 10.0 mi WNW 16.1 mph 23.0 mph N/A   Clear
6:53 AM 19.0 °F 3.6 °F 12.9 °F 77% 29.69 in 10.0 mi WNW 18.4 mph - N/A   Clear
7:12 AM 19.4 °F 5.0 °F 12.2 °F 74% 29.63 in 10.0 mi WNW 16.1 mph - N/A   Mostly Cloudy
7:53 AM 18.0 °F 4.2 °F 10.9 °F 74% 29.70 in 10.0 mi WNW 13.8 mph - N/A   Mostly Cloudy
8:01 AM 17.6 °F 3.2 °F 10.4 °F 73% 29.63 in 10.0 mi WNW 15.0 mph - N/A   Mostly Cloudy
8:08 AM 17.6 °F 5.7 °F 12.2 °F 79% 29.63 in 10.0 mi WNW 10.4 mph - N/A   Partly Cloudy
8:53 AM 17.1 °F 2.5 °F 12.0 °F 81% 29.70 in 10.0 mi WNW 15.0 mph - N/A   Clear
9:53 AM 18.0 °F 5.4 °F 12.0 °F 78% 29.70 in 10.0 mi WNW 11.5 mph - N/A   Clear
10:53 AM 19.9 °F 6.7 °F 12.0 °F 71% 29.71 in 10.0 mi WNW 13.8 mph 23.0 mph N/A   Clear
11:53 AM 21.0 °F 8.1 °F 14.0 °F 74% 29.69 in 10.0 mi West 13.8 mph - N/A   Clear
12:53 PM 21.0 °F 7.6 °F 14.0 °F 74% 29.67 in 10.0 mi WNW 15.0 mph - N/A   Clear
1:53 PM 21.0 °F 9.9 °F 14.0 °F 74% 29.66 in 10.0 mi WNW 10.4 mph - N/A   Clear
2:53 PM 21.9 °F 12.5 °F 16.0 °F 78% 29.67 in 10.0 mi West 8.1 mph - N/A   Clear
3:53 PM 21.0 °F 11.4 °F 15.1 °F 78% 29.66 in 10.0 mi West 8.1 mph - N/A   Scattered Clouds
4:53 PM 21.0 °F - 16.0 °F 81% 29.65 in 10.0 mi Calm Calm - N/A   Mostly Cloudy
5:53 PM 21.9 °F 17.2 °F 17.1 °F 82% 29.64 in 7.0 mi SE 3.5 mph - 0.00 in Snow Light Snow
6:23 PM 21.2 °F 16.4 °F 17.6 °F 86% 29.56 in 10.0 mi SE 3.5 mph - 0.00 in   Overcast
6:53 PM 21.9 °F 15.7 °F 17.1 °F 82% 29.63 in 10.0 mi SE 4.6 mph - 0.00 in   Overcast
7:53 PM 21.9 °F 11.7 °F 18.0 °F 85% 29.60 in 10.0 mi ESE 9.2 mph - N/A   Overcast
8:53 PM 21.0 °F 12.4 °F 18.0 °F 88% 29.59 in 10.0 mi East 6.9 mph - N/A   Overcast
9:53 PM 21.9 °F 11.7 °F 18.0 °F 85% 29.57 in 10.0 mi East 9.2 mph - N/A   Overcast
10:17 PM 21.2 °F 11.7 °F 19.4 °F 93% 29.48 in 8.0 mi ESE 8.1 mph - N/A   Overcast
10:31 PM 21.2 °F 10.9 °F 19.4 °F 93% 29.48 in 2.0 mi ESE 9.2 mph - 0.00 in Snow Light Snow
10:44 PM 21.2 °F 12.6 °F 19.4 °F 93% 29.48 in 3.0 mi ESE 6.9 mph - 0.00 in Snow Light Snow
10:51 PM 21.2 °F 11.7 °F 19.4 °F 93% 29.48 in 2.0 mi East 8.1 mph - 0.00 in Snow Light Snow
10:53 PM 23.0 °F 13.9 °F 19.9 °F 88% 29.55 in 2.0 mi East 8.1 mph - 0.00 in Snow Light Snow
11:03 PM 23.0 °F 14.7 °F 19.4 °F 86% 29.49 in 1.5 mi East 6.9 mph - 0.00 in Snow Light Snow
11:19 PM 21.2 °F 10.9 °F 19.4 °F 93% 29.48 in 1.2 mi East 9.2 mph - 0.00 in Snow Light Snow
11:53 PM 23.0 °F 14.7 °F 19.0 °F 85% 29.55 in 1.2 mi East 6.9 mph - 0.01 in Snow Light Snow
11:58 PM 23.0 °F 14.7 °F 19.4 °F 86% 29.48 in 2.0 mi East 6.9 mph - 0.00 in Snow Light Snow